194P/LINEAR (2008)

Japanese version
Home page
Total 6,336 html files since Dec. 4, 1995
Updated on April 6, 2008

---------------------------------------------------------------------

* Profile

Designation 194P/2007 W2
Recovery Date November 17, 2007
Magnitude 19.5 mag
Recoverer L. Buzzi and F. Luppi (Varese, Italy)

* Pictures

* Orbital Elements

                    Epoch = 2008 Feb. 24.0 TT
     T = 2008 Feb. 26.1914 TT         Peri. = 130.6410
     e = 0.574210                     Node  = 352.0642  2000.0
     q = 1.708753 AU                  Incl. =  11.1181
       a =  4.013132 AU    n = 0.1225967    P =   8.039 years

* Magnitudes Graph

        m1 = 13.0 + 5 log d + 15.0 log r(t - 70)

---------------------------------------------------------------------

The orbital elements are printed on IAUC 8900.
The magnitudes graphs are made with Comet for Windows.

---------------------------------------------------------------------

Copyright(C) 1995-2008 Seiichi Yoshida (comet@aerith.net). All rights reserved.